Theta_e
352 354 355 357 365 363 351 348 346 348 348 346 346 345 347 345 344 347 341 345 343 344 345 343 342 341 338 336 337 341 335 333 334 337 335 335 335 339 338 339 341 337 331 337 336 337 338 335 338
357 358 358 360 367 352 352 348 347 348 346 347 346 346 345 347 341 342 345 343 345 347 349 347 343 343 341 341 342 342 335 333 333 336 337 340 340 338 340 334 335 336 342 338 334 335 338 335 335
360 359 362 365 354 353 352 347 346 346 346 347 347 347 348 350 343 345 347 346 350 349 350 343 341 342 342 342 342 338 333 333 333 334 337 339 336 335 340 334 336 340 336 332 330 337 338 339 333
361 362 363 366 351 349 350 348 345 345 345 347 346 349 347 347 347 350 348 349 349 349 349 342 340 340 339 338 334 332 332 334 335 334 336 338 336 341 341 339 339 341 339 332 330 330 332 339 342
357 359 360 351 350 348 347 346 346 346 344 346 347 350 350 350 350 349 347 349 344 348 348 345 340 336 331 331 332 333 335 335 336 337 340 334 335 337 335 333 335 332 332 332 332 332 331 334 340
357 353 355 352 349 348 347 345 345 344 344 344 349 350 350 351 349 348 346 345 343 345 345 340 334 331 332 333 338 337 341 341 338 338 336 334 333 333 335 337 336 336 334 334 334 335 333 332 332
358 356 350 349 350 349 348 346 345 344 342 346 348 351 349 351 349 348 346 345 344 343 344 343 341 338 340 341 342 338 335 335 335 336 335 333 333 332 332 332 333 333 333 333 333 333 333 333 333
354 356 350 347 350 351 347 345 344 344 345 345 349 351 350 349 349 348 346 346 344 344 343 345 346 346 347 344 339 341 333 332 332 331 331 331 332 333 332 332 332 332 333 334 334 334 337 334 333
350 354 350 350 350 350 347 346 346 343 343 345 345 347 348 347 348 348 346 346 346 345 345 344 345 346 348 346 338 336 334 333 333 335 333 335 348 349 347 347 345 335 334 336 335 336 336 334 342
353 353 351 350 350 349 346 346 345 346 344 344 346 348 347 347 347 348 346 345 345 345 345 346 346 346 347 349 345 348 348 346 347 347 348 348 347 348 349 346 333 329 329 331 332 333 335 341 351
345 350 350 350 350 348 346 346 345 345 345 343 347 348 347 347 346 346 345 345 345 345 345 345 346 348 347 348 347 348 349 349 346 347 347 348 347 346 349 351 352 350 345 348 349 350 347 343 349
349 348 349 349 350 348 349 347 345 346 342 343 345 346 347 346 345 345 345 345 345 345 346 346 347 348 347 348 349 347 348 346 346 348 338 350 350 352 352 351 351 351 349 347 349 349 349 346 342
347 348 348 349 349 349 349 348 346 346 341 341 343 344 345 345 344 344 344 343 344 345 346 346 348 349 349 349 347 348 347 345 347 349 350 350 350 353 351 352 351 351 352 353 351 345 350 345 345
342 345 347 348 350 349 350 350 348 347 343 341 342 341 341 341 342 342 343 343 343 343 344 345 347 349 349 348 349 347 345 347 349 348 350 349 352 352 353 352 352 352 351 346 345 345 346 345 344
343 348 348 349 350 351 350 353 352 348 346 343 344 343 341 341 341 341 342 343 344 344 344 345 345 348 349 349 349 348 347 348 349 349 351 350 352 354 349 353 352 354 347 345 345 343 343 343 342
345 345 352 349 350 351 352 357 351 349 348 347 344 345 344 341 340 341 342 342 343 343 345 346 344 345 347 347 349 348 349 349 350 350 351 352 355 348 354 353 352 350 348 347 347 345 345 344 349
338 339 342 349 348 350 353 354 351 350 349 347 346 346 346 344 344 343 343 343 343 344 345 346 345 345 346 347 349 350 351 350 350 351 351 354 354 355 348 352 353 351 350 351 349 348 348 348 346
336 337 339 346 348 350 353 353 351 349 349 348 346 345 346 346 345 345 346 345 345 345 345 346 346 346 348 350 351 349 349 350 351 351 351 354 356 357 353 354 353 350 352 352 353 349 349 348 350
334 336 339 341 346 350 352 352 352 349 349 349 347 345 345 346 345 346 347 346 346 347 347 347 348 349 350 350 351 350 350 349 350 349 352 354 356 357 348 353 352 350 351 346 350 351 349 350 350
334 334 337 340 340 347 349 352 352 350 349 350 348 346 344 345 345 346 347 347 346 347 349 350 350 352 352 351 351 350 350 349 350 350 353 356 356 356 354 348 352 346 351 350 349 349 350 350 351
334 333 334 337 340 345 345 352 354 351 349 349 349 348 344 344 345 345 346 346 347 348 350 351 353 353 353 353 352 351 352 351 350 351 353 355 354 356 356 355 354 349 352 351 352 351 350 351 352
333 331 333 337 339 346 340 352 353 354 352 351 350 349 346 342 344 344 345 346 346 348 349 351 353 354 355 352 352 352 351 350 349 350 352 355 351 355 357 356 354 352 350 351 351 352 352 346 352
332 331 332 334 337 339 344 351 354 352 355 353 349 349 348 344 342 344 344 345 346 346 347 350 353 355 355 356 350 354 351 351 352 351 355 352 355 350 356 357 354 351 354 348 348 352 350 353 349
331 331 333 334 337 344 341 348 349 353 352 353 350 349 348 346 342 342 343 344 344 345 346 348 353 356 356 357 348 352 354 351 352 353 357 353 353 354 347 359 361 351 352 351 352 351 351 352 348
333 332 333 334 337 352 343 348 347 346 346 349 351 350 349 347 344 342 343 343 343 344 345 347 352 356 356 354 355 343 347 354 354 359 354 354 351 351 354 351 359 356 336 351 352 350 351 347 347
334 333 333 335 335 340 338 349 349 347 344 346 349 350 349 349 346 342 343 344 343 343 344 346 350 355 351 345 345 344 342 353 353 353 355 354 352 352 355 346 359 359 351 346 346 351 348 344 343
333 333 333 332 332 335 341 349 347 349 348 346 347 349 350 349 347 343 343 343 343 343 344 346 348 355 354 353 347 342 342 345 353 352 352 355 355 354 356 353 351 360 357 349 350 353 341 335 336
332 333 331 331 334 336 343 346 346 347 352 351 348 349 350 349 348 346 345 343 344 344 344 345 347 351 355 355 355 348 342 341 344 353 351 353 354 356 359 354 352 359 358 357 352 354 350 335 343
331 331 331 332 332 332 334 348 344 346 351 353 351 350 350 350 349 349 347 345 345 345 344 343 346 349 353 355 354 352 343 343 342 347 340 338 350 356 351 349 350 357 361 359 354 349 352 343 337
333 335 334 333 336 334 333 349 348 348 347 352 355 353 353 351 349 350 349 347 346 345 344 345 346 348 352 353 350 351 353 352 355 353 348 338 337 344 344 341 344 351 360 361 354 354 355 342 340
Wind_Speed
9 5 2 4 4 4 12 13 14 13 12 19 21 9 13 11 7 12 13 24 22 19 17 16 17 19 20 19 18 14 13 14 12 14 15 15 15 15 16 17 17 17 18 16 14 13 15 14 13
6 5 6 8 5 11 8 13 17 15 16 14 14 21 13 5 15 23 23 20 20 18 17 16 18 20 20 17 14 11 12 12 11 12 14 14 15 14 14 15 15 15 15 14 12 11 11 15 14
9 9 5 4 5 9 9 13 13 15 10 13 9 11 6 11 21 25 21 20 18 17 16 19 18 18 18 16 12 10 10 10 10 12 13 14 14 13 12 13 12 10 9 10 10 9 9 13 12
6 6 9 3 13 13 15 14 12 11 7 9 18 13 27 22 24 19 25 20 18 19 15 18 18 16 14 14 12 9 9 9 10 12 12 12 12 12 10 9 8 7 6 7 8 8 8 10 9
6 11 4 10 15 14 14 10 7 10 9 11 22 21 14 14 22 25 24 20 19 18 16 17 16 16 14 13 11 9 9 10 11 11 10 10 9 10 8 7 6 4 4 5 5 6 6 7 7
7 8 5 5 13 11 9 13 9 11 9 9 26 22 12 23 25 22 21 19 19 16 18 17 17 14 12 10 9 11 10 10 9 9 8 7 6 6 5 5 4 3 2 2 2 3 3 4 5
19 5 9 14 11 12 11 3 12 9 12 15 21 18 17 24 22 23 21 20 18 17 16 15 13 13 11 10 10 10 10 9 8 7 7 6 6 5 4 3 2 2 2 1 1 1 1 1 2
13 4 8 7 10 12 7 14 6 9 13 12 19 10 23 25 24 23 21 19 17 15 15 16 12 10 10 10 9 9 8 8 7 6 5 4 4 5 5 1 0 2 1 1 1 1 1 1 2
2 5 7 9 5 11 10 12 7 11 14 12 4 25 28 26 25 23 21 20 18 16 16 15 14 11 8 5 6 7 7 6 4 3 3 5 3 2 3 3 6 5 3 2 2 1 2 2 4
10 6 6 13 8 13 12 11 11 10 7 11 19 25 26 25 24 24 21 21 19 18 16 15 13 12 10 6 7 7 4 4 2 1 1 5 2 1 4 4 3 3 3 1 2 3 2 3 6
8 6 8 10 6 10 13 13 9 10 10 16 22 28 26 24 22 21 20 19 19 18 17 16 15 12 10 10 4 5 6 9 4 6 6 3 4 7 2 2 3 4 1 4 4 6 2 5 4
7 1 6 8 5 7 8 7 11 8 13 16 23 26 25 23 22 21 20 20 19 18 17 16 14 13 11 8 7 5 6 6 5 4 5 5 4 3 1 2 7 9 6 2 3 3 7 6 11
5 10 4 5 5 10 8 7 10 13 16 19 22 23 22 21 19 18 18 18 18 18 17 15 15 15 11 11 7 6 7 6 6 4 5 7 3 2 4 5 5 8 8 6 7 7 7 9 6
5 4 8 7 8 9 11 9 10 14 18 20 21 21 20 20 20 18 17 17 17 16 16 15 14 14 13 12 10 9 8 7 6 5 7 4 3 2 7 5 6 10 8 9 12 10 11 8 6
9 11 8 11 11 9 17 15 12 17 20 20 20 19 19 19 19 19 18 18 17 16 16 16 15 13 13 12 10 9 7 6 5 5 5 5 4 5 6 5 7 2 15 14 13 12 13 13 11
13 11 10 13 14 9 11 12 11 18 20 20 20 20 18 18 19 18 18 18 17 16 16 15 14 13 12 11 10 8 8 7 7 4 5 3 5 4 6 7 7 14 12 13 9 6 6 10 9
1 6 11 9 12 8 12 11 16 22 20 21 21 21 20 20 20 19 18 17 17 16 16 17 15 14 13 12 10 9 8 8 6 5 5 3 5 7 8 3 8 11 12 13 6 1 3 5 7
6 6 8 13 11 10 12 10 15 22 21 20 22 23 22 22 22 21 20 18 16 16 16 16 14 14 14 11 11 9 8 7 5 5 3 3 5 4 6 5 8 7 8 7 3 5 6 8 6
6 3 7 10 12 12 10 12 14 20 19 19 22 24 24 23 23 23 21 19 18 16 16 15 15 14 14 12 10 9 8 6 6 6 6 4 4 6 6 1 7 7 5 2 4 5 3 5 4
6 8 7 8 11 12 10 10 14 19 20 21 21 23 25 24 25 24 23 22 21 19 17 16 16 15 15 12 11 9 7 7 7 5 5 5 4 3 5 1 3 3 4 5 5 4 3 3 3
5 10 7 10 4 11 8 10 16 16 20 19 20 21 24 26 27 27 26 24 22 20 19 18 18 16 16 13 11 10 8 9 6 7 5 5 4 3 2 2 2 2 4 3 1 1 2 3 4
4 5 7 9 14 7 6 11 29 20 17 17 21 21 22 25 25 27 27 25 24 22 19 18 18 19 17 16 11 12 8 8 7 6 6 4 7 3 1 1 1 2 4 2 6 4 3 4 3
11 8 11 14 15 18 7 9 13 18 19 19 21 23 21 23 27 28 27 26 24 22 21 19 19 19 19 17 16 12 10 7 6 6 6 5 8 2 2 1 1 1 4 3 4 0 1 3 2
9 12 19 16 15 9 4 17 15 13 13 18 23 25 24 23 24 26 26 26 24 23 21 20 19 20 19 19 17 17 11 11 9 9 6 3 2 2 1 1 1 1 2 0 1 1 2 1 2
10 18 13 12 6 8 11 15 15 11 4 14 21 25 26 25 26 26 25 26 24 24 23 20 18 19 19 20 18 17 15 13 14 10 9 6 4 2 7 2 2 1 1 1 2 1 2 0 2
10 13 10 4 6 3 5 9 9 8 6 1 18 23 24 24 24 26 25 25 24 24 23 21 18 18 18 19 19 18 17 14 14 13 11 7 6 4 9 3 5 3 2 1 2 1 2 4 1
16 11 11 11 6 9 2 23 20 16 14 8 12 19 23 25 25 24 25 25 24 24 23 22 20 19 19 19 20 19 19 17 15 14 13 11 10 7 9 6 4 5 5 2 2 2 2 3 1
16 13 10 10 2 7 9 15 9 6 13 12 7 10 18 22 24 25 24 26 24 24 24 22 21 21 20 19 20 20 19 18 20 17 17 14 12 13 10 10 8 7 8 6 4 5 5 3 1
10 12 11 9 7 7 4 10 12 11 11 11 11 1 13 18 23 25 25 25 24 23 23 23 22 22 20 20 21 20 19 19 20 19 18 19 17 16 16 15 12 10 11 9 8 8 10 7 6
12 13 8 8 8 3 8 7 12 11 14 11 11 10 9 14 18 21 24 25 25 24 24 23 23 23 22 23 22 22 19 19 18 19 19 18 19 19 20 17 16 14 13 14 13 10 10 9 8
Wind_Direction
134 134 122 249 246 210 66 85 104 114 78 100 91 132 97 61 54 126 139 148 135 135 133 134 137 140 140 136 130 123 119 113 108 105 102 98 109 113 114 115 109 102 96 95 91 89 80 80 98
168 190 234 273 259 86 73 69 64 69 100 99 108 123 102 80 103 129 140 145 148 129 142 137 134 139 146 145 140 126 125 117 112 110 108 104 105 112 121 121 113 104 96 93 90 82 75 74 105
175 223 252 226 49 84 98 73 83 97 118 94 105 77 65 106 132 138 147 148 139 140 142 141 135 132 143 148 142 137 131 124 119 120 115 108 106 115 119 123 119 105 91 89 91 89 81 81 95
197 233 246 269 81 70 83 90 107 110 78 95 103 90 95 115 133 138 145 144 140 144 145 136 141 139 145 142 143 144 135 128 127 126 120 113 111 121 125 127 124 113 99 92 97 92 88 85 78
241 274 304 108 81 79 81 84 114 94 99 136 107 114 101 101 128 137 143 145 144 140 144 142 146 150 151 144 149 141 133 129 122 128 124 119 118 117 125 132 124 121 105 91 89 87 91 99 95
237 319 173 105 98 100 101 70 67 85 98 107 106 112 115 125 134 140 142 147 145 149 136 148 153 149 146 145 146 143 136 126 128 130 130 135 133 128 138 136 135 132 108 89 71 71 93 103 103
241 235 77 90 107 93 81 122 65 106 126 139 135 121 134 133 140 142 153 148 147 146 148 147 150 153 148 151 149 145 141 140 138 134 135 131 122 127 123 121 122 150 154 174 195 96 68 90 108
273 233 113 127 110 108 120 82 81 99 93 124 124 145 145 148 147 146 149 149 151 153 156 156 159 149 154 155 156 155 148 148 140 141 141 105 86 47 68 52 86 290 267 250 233 247 343 42 21
333 339 140 94 112 122 130 113 83 105 134 148 76 140 145 147 150 150 153 155 156 161 162 160 159 165 168 178 184 166 167 161 159 146 73 96 37 17 318 309 270 276 256 244 277 295 299 22 52
129 203 106 106 127 117 120 106 132 129 129 131 111 131 142 149 155 154 162 161 162 163 164 164 163 165 172 161 214 162 174 172 154 230 311 48 79 189 180 259 295 295 279 299 328 299 295 57 238
343 23 65 77 73 145 118 134 154 134 125 147 139 147 151 155 161 162 164 167 168 168 169 172 172 171 173 174 210 174 173 175 211 203 179 207 186 214 210 304 306 312 343 220 284 291 278 240 54
117 25 16 109 124 143 146 141 135 69 117 141 147 152 156 162 166 166 169 170 170 172 174 176 179 171 178 178 183 190 164 182 210 206 209 180 181 213 242 280 318 296 210 92 238 210 258 217 221
86 147 156 102 146 188 141 167 127 111 131 141 148 154 163 166 170 170 171 171 173 175 175 176 182 176 179 180 180 182 187 175 195 212 189 196 279 243 250 294 295 298 329 299 264 220 266 256 231
84 134 164 159 167 157 178 163 172 140 146 149 155 162 167 171 174 171 175 173 175 177 177 178 184 181 175 177 183 187 177 192 207 189 220 202 237 283 318 308 309 298 294 289 285 269 244 244 232
152 160 178 168 177 183 184 165 196 157 156 159 165 167 165 172 175 176 178 178 180 179 180 182 182 184 178 181 187 172 185 187 189 196 210 208 225 249 322 317 322 356 302 299 284 273 253 249 227
211 218 169 149 172 196 187 169 172 167 168 170 170 171 169 170 173 175 178 180 179 179 181 183 179 187 183 185 185 172 186 191 204 207 236 248 280 279 298 331 336 302 306 310 310 258 231 198 204
326 86 127 144 186 161 218 126 166 170 179 178 177 175 177 173 172 172 172 175 178 180 182 182 182 184 190 191 187 185 196 206 210 229 253 205 283 281 297 299 328 319 0 343 354 164 151 203 203
22 2 74 128 176 195 212 115 165 177 192 182 181 181 185 182 184 179 178 178 175 177 181 180 184 184 188 194 187 197 208 218 221 224 254 285 291 302 304 305 311 349 359 1 1 76 94 88 127
295 315 91 95 150 190 189 154 171 182 196 182 184 184 190 190 188 180 186 182 180 179 180 183 184 189 186 188 193 202 212 219 225 229 238 272 316 304 305 316 323 18 346 337 65 73 89 120 167
265 254 86 112 159 231 167 192 172 182 192 186 191 189 191 196 185 186 189 187 187 185 186 189 190 196 192 197 199 210 216 221 220 220 223 254 278 322 330 15 309 303 304 8 81 113 85 82 207
171 13 354 344 217 228 154 350 181 189 189 191 192 196 194 197 191 190 190 193 192 190 194 196 195 202 201 196 209 215 218 225 226 229 246 261 279 289 300 264 186 326 101 337 70 139 45 87 108
45 20 311 279 288 181 163 212 238 181 188 192 194 196 196 195 202 190 193 196 197 196 199 202 203 203 210 202 208 213 220 225 226 218 211 222 282 266 236 55 335 168 155 208 21 354 44 25 90
332 337 294 288 283 269 222 103 160 174 187 191 196 194 197 198 198 199 198 197 201 197 200 203 208 211 205 218 198 221 213 221 211 193 225 251 274 238 170 245 160 186 98 278 189 74 348 59 102
301 285 261 247 241 329 343 84 297 163 193 192 194 196 195 195 204 205 200 199 204 202 202 201 207 215 212 213 218 205 217 207 201 201 212 200 206 270 187 180 188 214 175 152 41 233 22 301 198
235 264 272 226 217 192 219 75 243 88 104 175 191 194 190 194 195 204 201 200 201 202 199 202 204 211 208 212 214 220 214 213 213 198 202 193 187 210 266 210 215 18 63 183 168 353 208 337 167
238 281 298 320 321 247 203 53 317 32 82 127 166 184 191 191 189 203 199 201 198 202 201 204 205 208 205 210 217 224 223 212 211 220 197 206 200 205 242 233 189 217 264 138 340 35 82 273 13
242 225 276 299 256 275 144 151 29 47 51 114 137 174 185 192 184 197 201 201 196 200 205 205 205 208 209 212 213 220 223 211 210 209 222 207 206 211 233 232 231 205 246 253 295 183 278 249 70
265 318 256 221 302 287 347 127 168 54 43 31 110 167 178 192 193 194 200 200 199 201 203 205 207 210 212 209 217 218 224 222 214 212 215 212 216 226 216 233 238 224 235 230 212 249 270 290 220
185 227 246 318 327 312 213 76 53 58 60 34 17 67 174 190 197 198 202 202 202 205 205 205 208 212 214 211 214 219 224 225 223 220 227 229 222 219 232 237 243 235 232 231 237 210 239 268 250
292 331 292 244 194 249 311 100 74 51 49 40 29 2 351 185 199 203 199 205 207 207 208 208 209 211 217 222 220 225 219 220 219 222 226 230 233 232 242 245 243 242 230 234 243 238 238 255 240